Weather History for Hillsdale, MI

Change the Weather History Date:

Friday, January 25, 2013

  Actual Average Record
Temperature  
Mean Temperature 18 °F -  
Max Temperature 22 °F 33 °F 67 °F (1950)
Min Temperature 14 °F 16 °F -19 °F (1987)
Degree Days  
Heating Degree Days 47    
Moisture  
Dew Point 12 °F    
Average Humidity 78    
Maximum Humidity 93    
Minimum Humidity 53    
Precipitation  
Precipitation 0.00 in - - ()
Sea Level Pressure  
Sea Level Pressure 30.10 in    
Wind  
Wind Speed 5 mph (SSE)    
Max Wind Speed 10 mph    
Max Gust Speed -    
Visibility 5 miles    
Events Snow    
Averages and records for this station are not official NWS values.
T = Trace of Precipitation, MM = Missing Value Source: NWS Daily Summary

Daily Weather History Graph

Daily Weather History Graph

Search for Another Location

Airport:

Trip Planner

Search our weather history database for the weather conditions in past years. The results will help you decide how hot, cold, wet, or windy it might be!

Date:

Astronomy

Jan. 25, 2013 Rise Set
Actual Time 7:57 AM EST 5:44 PM EST
Civil Twilight 7:27 AM EST 6:14 PM EST
Nautical Twilight 6:53 AM EST 6:48 PM EST
Astronomical Twilight 6:20 AM EST 7:21 PM EST
Moon 4:41 PM EST (1/25) 6:36 AM EST (1/25)
Length of Visible Light 10h 47m
Length of Day
9h 47m
Waxing Gibbous, 98% of the Moon is Illuminated
Jan 25
Waxing Gibbous
Jan 26
Full
Feb 3
Last Quarter
Feb 10
New
Feb 17
First Quarter

Hourly Weather History & Observations

Time (EST) Temp. Windchill Dew Point Humidity Pressure Visibility Wind Dir Wind Speed Gust Speed Precip Events Conditions
12:15 AM 14.4 °F 8.6 °F -0.0 °F 53% 30.41 in 10.0 mi SE 3.5 mph - N/A   Overcast
12:35 AM 14.5 °F 7.1 °F 0.3 °F 53% 30.40 in 10.0 mi SE 4.6 mph - N/A   Overcast
12:54 AM 14.5 °F 7.1 °F 0.9 °F 55% 30.39 in 10.0 mi SE 4.6 mph - N/A   Overcast
1:15 AM 14.5 °F 7.1 °F 1.6 °F 57% 30.39 in 10.0 mi SE 4.6 mph - N/A   Overcast
1:35 AM 14.5 °F 7.1 °F 2.3 °F 58% 30.38 in 10.0 mi SE 4.6 mph - N/A   Overcast
1:55 AM 14.5 °F 7.1 °F 2.7 °F 59% 30.37 in 10.0 mi SE 4.6 mph - N/A   Overcast
2:14 AM 15.1 °F 7.7 °F 3.7 °F 61% 30.37 in 10.0 mi ESE 4.6 mph - N/A   Overcast
2:34 AM 15.1 °F 5.2 °F 4.3 °F 62% 30.36 in 10.0 mi ESE 6.9 mph - N/A   Overcast
2:55 AM 15.1 °F 6.4 °F 4.8 °F 64% 30.34 in 10.0 mi SE 5.8 mph - N/A   Overcast
3:14 AM 15.1 °F 5.2 °F 5.5 °F 66% 30.33 in 10.0 mi SSE 6.9 mph - N/A   Overcast
3:34 AM 15.1 °F 6.4 °F 5.7 °F 66% 30.33 in 10.0 mi SSE 5.8 mph - N/A   Overcast
3:54 AM 15.3 °F 3.5 °F 6.4 °F 68% 30.30 in 10.0 mi SE 9.2 mph - N/A   Overcast
4:15 AM 15.3 °F 5.4 °F 7.9 °F 73% 30.28 in 7.0 mi SE 6.9 mph - N/A Snow Light Snow
4:34 AM 15.4 °F 4.6 °F 8.2 °F 73% 30.26 in 10.0 mi SE 8.1 mph - N/A   Mostly Cloudy
4:54 AM 15.4 °F 4.6 °F 8.1 °F 73% 30.26 in 10.0 mi SE 8.1 mph - N/A   Overcast
5:15 AM 15.6 °F 7.0 °F 7.9 °F 72% 30.24 in 10.0 mi SE 5.8 mph - N/A   Overcast
5:34 AM 15.6 °F 5.9 °F 7.3 °F 70% 30.22 in 10.0 mi ESE 6.9 mph - N/A   Overcast
5:55 AM 15.6 °F 4.0 °F 7.3 °F 70% 30.20 in 10.0 mi SE 9.2 mph - N/A   Overcast
6:15 AM 15.6 °F 5.9 °F 7.7 °F 71% 30.19 in 10.0 mi SSE 6.9 mph - N/A   Overcast
6:34 AM 15.6 °F 4.0 °F 7.9 °F 72% 30.19 in 10.0 mi SE 9.2 mph - N/A   Overcast
6:55 AM 15.6 °F 7.0 °F 8.1 °F 72% 30.18 in 10.0 mi SE 5.8 mph - N/A   Overcast
7:14 AM 15.6 °F 3.2 °F 8.2 °F 73% 30.17 in 10.0 mi SE 10.4 mph - N/A   Overcast
7:34 AM 15.6 °F 5.9 °F 8.2 °F 73% 30.16 in 10.0 mi SE 6.9 mph - N/A   Overcast
7:54 AM 16.2 °F 7.6 °F 8.8 °F 73% 30.16 in 10.0 mi SE 5.8 mph - N/A   Overcast
8:34 AM 15.6 °F 4.9 °F 10.2 °F 79% 30.14 in 1.2 mi SE 8.1 mph - N/A Snow Light Snow
8:55 AM 15.6 °F 5.9 °F 10.8 °F 81% 30.13 in 2.5 mi SE 6.9 mph - N/A Snow Light Snow
9:14 AM 15.8 °F 6.1 °F 10.9 °F 81% 30.12 in 1.0 mi ESE 6.9 mph - N/A Snow Light Snow
9:35 AM 16.2 °F 7.6 °F 10.9 °F 80% 30.12 in 10.0 mi SSE 5.8 mph - N/A   Overcast
9:54 AM 16.5 °F 8.1 °F 10.2 °F 76% 30.11 in 10.0 mi SE 5.8 mph - N/A   Overcast
10:14 AM 17.1 °F 6.6 °F 9.7 °F 73% 30.10 in 10.0 mi SSE 8.1 mph - N/A   Overcast
10:35 AM 17.1 °F 6.6 °F 11.1 °F 77% 30.10 in 1.8 mi South 8.1 mph - N/A Snow Light Snow
10:54 AM 17.1 °F 7.6 °F 12.6 °F 82% 30.09 in 1.0 mi SSE 6.9 mph - N/A Snow Light Snow
11:14 AM 17.2 °F 6.8 °F 12.6 °F 82% 30.09 in 2.0 mi SE 8.1 mph - N/A Snow Light Snow
11:35 AM 17.8 °F 6.6 °F 12.4 °F 79% 30.08 in 1.5 mi SSE 9.2 mph - N/A Snow Light Snow
11:54 AM 18.3 °F 9.1 °F 12.9 °F 79% 30.07 in 3.0 mi SSE 6.9 mph - N/A Snow Light Snow
12:15 PM 18.9 °F 8.8 °F 13.1 °F 78% 30.05 in 4.0 mi South 8.1 mph - N/A Snow Light Snow
12:34 PM 19.0 °F 9.0 °F 13.3 °F 78% 30.04 in 3.0 mi South 8.1 mph - N/A Snow Light Snow
12:54 PM 19.6 °F 9.7 °F 13.1 °F 76% 30.02 in 3.0 mi South 8.1 mph - N/A Snow Light Snow
1:15 PM 19.8 °F 9.9 °F 13.6 °F 77% 30.01 in 3.0 mi South 8.1 mph - N/A Snow Light Snow
1:34 PM 19.8 °F 10.8 °F 13.5 °F 77% 30.00 in 3.0 mi South 6.9 mph - N/A Snow Light Snow
1:55 PM 19.8 °F 9.9 °F 13.5 °F 77% 29.98 in 4.0 mi SSE 8.1 mph - N/A Snow Light Snow
2:14 PM 19.9 °F 12.1 °F 13.8 °F 77% 29.98 in 1.8 mi South 5.8 mph - N/A Snow Light Snow
2:35 PM 19.9 °F 13.4 °F 14.4 °F 79% 29.97 in 1.5 mi South 4.6 mph - N/A Snow Light Snow
2:54 PM 20.1 °F 12.3 °F 14.7 °F 80% 29.97 in 2.0 mi South 5.8 mph - N/A Snow Light Snow
3:15 PM 19.9 °F 12.1 °F 14.9 °F 81% 29.96 in 2.0 mi South 5.8 mph - N/A Snow Light Snow
3:35 PM 20.1 °F 12.3 °F 15.1 °F 81% 29.97 in 2.0 mi South 5.8 mph - N/A Snow Light Snow
3:54 PM 20.1 °F 11.3 °F 15.3 °F 81% 29.97 in 5.0 mi South 6.9 mph - N/A Snow Light Snow
4:15 PM 20.1 °F 13.6 °F 15.4 °F 82% 29.95 in 2.0 mi SSE 4.6 mph - N/A Snow Light Snow
4:34 PM 20.1 °F 11.3 °F 15.4 °F 82% 29.95 in 3.0 mi South 6.9 mph - N/A Snow Light Snow
4:55 PM 20.1 °F 13.6 °F 16.0 °F 84% 29.96 in 5.0 mi South 4.6 mph - N/A Snow Light Snow
5:15 PM 20.1 °F 12.3 °F 16.3 °F 85% 29.96 in 10.0 mi South 5.8 mph - N/A Snow Light Snow
5:34 PM 20.1 °F 13.6 °F 16.3 °F 85% 29.96 in 4.0 mi South 4.6 mph - N/A Snow Light Snow
5:55 PM 20.1 °F 13.6 °F 16.5 °F 86% 29.96 in 2.5 mi SSW 4.6 mph - N/A Snow Light Snow
6:15 PM 20.3 °F 13.8 °F 16.9 °F 87% 29.97 in 2.5 mi SSW 4.6 mph - N/A Snow Light Snow
6:34 PM 20.1 °F - 17.2 °F 89% 29.97 in 2.0 mi Calm Calm - N/A Snow Light Snow
6:55 PM 20.1 °F 15.2 °F 17.4 °F 89% 29.97 in 1.5 mi SSW 3.5 mph - N/A Snow Light Snow
7:14 PM 20.1 °F - 17.6 °F 90% 29.97 in 2.0 mi Calm Calm - N/A Snow Light Snow
7:34 PM 20.5 °F - 17.8 °F 89% 29.98 in 1.8 mi Calm Calm - N/A Snow Light Snow
7:55 PM 20.1 °F - 17.8 °F 91% 29.97 in 1.8 mi Calm Calm - N/A Snow Light Snow
8:14 PM 20.1 °F - 18.0 °F 91% 29.97 in 2.0 mi Calm Calm - N/A Snow Light Snow
8:35 PM 20.1 °F 15.2 °F 18.0 °F 91% 29.98 in 2.0 mi South 3.5 mph - N/A Snow Light Snow
8:54 PM 20.5 °F 15.6 °F 18.3 °F 91% 29.98 in 2.0 mi SSW 3.5 mph - N/A Snow Light Snow
9:15 PM 20.7 °F 14.2 °F 18.5 °F 91% 29.98 in 2.5 mi South 4.6 mph - N/A Snow Light Snow
9:34 PM 20.7 °F 15.8 °F 18.5 °F 91% 29.98 in 3.0 mi SW 3.5 mph - N/A Snow Light Snow
9:55 PM 20.7 °F 15.8 °F 18.5 °F 91% 29.98 in 2.5 mi SSW 3.5 mph - N/A Snow Light Snow
10:14 PM 21.0 °F - 18.9 °F 91% 29.98 in 2.0 mi Calm Calm - N/A Snow Light Snow
10:35 PM 21.0 °F - 19.0 °F 92% 29.98 in 1.8 mi Calm Calm - N/A Snow Light Snow
10:55 PM 21.4 °F - 19.4 °F 92% 29.98 in 1.8 mi Calm Calm - N/A Snow Light Snow
11:14 PM 21.7 °F - 19.9 °F 93% 29.99 in 2.5 mi Calm Calm - N/A Snow Light Snow
11:35 PM 22.5 °F - 20.5 °F 92% 29.99 in 3.0 mi Calm Calm - N/A Snow Light Snow
11:55 PM 22.5 °F 17.8 °F 20.5 °F 92% 30.00 in 2.5 mi West 3.5 mph - N/A Snow Light Snow